Weather Underground History

Daily Summary for December 13, 2018 Units:  Metric    English   Both
« Previous Day
Next Day »
Daily Weekly Monthly Yearly Custom
  Current: High: Low: Average:
Temperature: 3.2 °C 3.6 °C 1.9 °C 3 °C
Dew Point: 0.3 °C 1.1 °C -0.3 °C 0.3 °C
Humidity: 81% 87% 77% 83%
Wind Speed: 17.7km/h 25.7km/h 6.4km/h 14.5km/h
Wind Gust: 24.1km/h 33.8km/h - -
WindESE - - ESE
Pressure: 1016.5 hPa 1017.8 hPa 1016.1 hPa -
Precipitation: 0.0 mm      
Historical Graphs
 
 
Tabular Data for December 13, 2018
Time Temperature Dew Point Pressure Wind Wind Speed Wind Gust Humidity Rainfall Rate (Hourly) solar
00:04 1.9 °C -0.3 °C 1017.8 hPa ESE 11.3 km/h 17.7 km/h 85% 0.0 mm 0.00 W/m2
00:09 2.1 °C -0.1 °C 1017.8 hPa ESE 9.7 km/h 14.5 km/h 85% 0.0 mm 0.00 W/m2
00:14 2.2 °C -0.0 °C 1017.8 hPa ESE 11.3 km/h 12.9 km/h 85% 0.0 mm 0.00 W/m2
00:19 2.3 °C 0.1 °C 1017.8 hPa ESE 11.3 km/h 14.5 km/h 85% 0.0 mm 0.00 W/m2
00:24 2.4 °C 0.2 °C 1017.8 hPa ESE 17.7 km/h 22.5 km/h 85% 0.0 mm 0.00 W/m2
00:29 2.6 °C 0.1 °C 1017.8 hPa ESE 12.9 km/h 22.5 km/h 84% 0.0 mm 0.00 W/m2
00:34 2.6 °C 0.2 °C 1017.6 hPa ESE 12.9 km/h 17.7 km/h 84% 0.0 mm 0.00 W/m2
00:39 2.7 °C 0.2 °C 1017.7 hPa ESE 9.7 km/h 19.3 km/h 84% 0.0 mm 0.00 W/m2
00:44 2.7 °C 0.2 °C 1017.6 hPa ESE 14.5 km/h 17.7 km/h 84% 0.0 mm 0.00 W/m2
00:49 2.7 °C 0.3 °C 1017.6 hPa ESE 9.7 km/h 17.7 km/h 84% 0.0 mm 0.00 W/m2
00:54 2.7 °C 0.2 °C 1017.6 hPa ESE 8.0 km/h 17.7 km/h 84% 0.0 mm 0.00 W/m2
00:59 2.6 °C 0.2 °C 1017.6 hPa ESE 11.3 km/h 17.7 km/h 84% 0.0 mm 0.00 W/m2
01:04 2.6 °C 0.2 °C 1017.6 hPa ESE 11.3 km/h 14.5 km/h 84% 0.0 mm 0.00 W/m2
01:09 2.6 °C 0.3 °C 1017.7 hPa ESE 6.4 km/h 12.9 km/h 85% 0.0 mm 0.00 W/m2
01:14 2.6 °C 0.3 °C 1017.7 hPa ESE 9.7 km/h 12.9 km/h 85% 0.0 mm 0.00 W/m2
01:19 2.6 °C 0.3 °C 1017.7 hPa ESE 8.0 km/h 9.7 km/h 85% 0.0 mm 0.00 W/m2
01:24 2.6 °C 0.3 °C 1017.7 hPa ESE 8.0 km/h 11.3 km/h 85% 0.0 mm 0.00 W/m2
01:29 2.6 °C 0.3 °C 1017.6 hPa ESE 11.3 km/h 14.5 km/h 85% 0.0 mm 0.00 W/m2
01:34 2.6 °C 0.5 °C 1017.6 hPa ESE 8.0 km/h 12.9 km/h 86% 0.0 mm 0.00 W/m2
01:39 2.6 °C 0.5 °C 1017.6 hPa ESE 9.7 km/h 14.5 km/h 86% 0.0 mm 0.00 W/m2
01:44 2.6 °C 0.5 °C 1017.6 hPa ESE 12.9 km/h 14.5 km/h 86% 0.0 mm 0.00 W/m2
01:49 2.7 °C 0.7 °C 1017.6 hPa ESE 11.3 km/h 19.3 km/h 87% 0.0 mm 0.00 W/m2
01:54 2.7 °C 0.7 °C 1017.5 hPa ESE 11.3 km/h 17.7 km/h 87% 0.0 mm 0.00 W/m2
01:59 2.7 °C 0.8 °C 1017.4 hPa ESE 12.9 km/h 19.3 km/h 87% 0.0 mm 0.00 W/m2
02:04 2.7 °C 0.8 °C 1017.3 hPa ESE 11.3 km/h 17.7 km/h 87% 0.0 mm 0.00 W/m2
02:09 2.8 °C 0.8 °C 1017.4 hPa ESE 9.7 km/h 14.5 km/h 87% 0.0 mm 0.00 W/m2
02:14 2.8 °C 0.8 °C 1017.3 hPa ESE 14.5 km/h 14.5 km/h 87% 0.0 mm 0.00 W/m2
02:19 2.8 °C 0.9 °C 1017.3 hPa ESE 9.7 km/h 14.5 km/h 87% 0.0 mm 0.00 W/m2
02:24 2.9 °C 0.9 °C 1017.4 hPa ESE 9.7 km/h 20.9 km/h 87% 0.0 mm 0.00 W/m2
02:29 2.9 °C 1.0 °C 1017.3 hPa ESE 19.3 km/h 19.3 km/h 87% 0.0 mm 0.00 W/m2
02:34 3.0 °C 1.0 °C 1017.1 hPa ESE 9.7 km/h 17.7 km/h 87% 0.0 mm 0.00 W/m2
02:39 3.1 °C 1.1 °C 1017.2 hPa ESE 12.9 km/h 20.9 km/h 87% 0.0 mm 0.00 W/m2
02:44 3.2 °C 1.1 °C 1017.2 hPa ESE 19.3 km/h 25.7 km/h 86% 0.0 mm 0.00 W/m2
02:49 3.3 °C 1.0 °C 1017.1 hPa ESE 19.3 km/h 25.7 km/h 85% 0.0 mm 0.00 W/m2
02:54 3.3 °C 0.7 °C 1017.1 hPa ESE 14.5 km/h 20.9 km/h 83% 0.0 mm 0.00 W/m2
02:59 3.4 °C 0.7 °C 1017.1 hPa ESE 19.3 km/h 27.4 km/h 82% 0.0 mm 0.00 W/m2
03:04 3.4 °C 0.7 °C 1017.0 hPa SE 20.9 km/h 24.1 km/h 82% 0.0 mm 0.00 W/m2
03:09 3.5 °C 0.6 °C 1017.0 hPa ESE 17.7 km/h 25.7 km/h 81% 0.0 mm 0.00 W/m2
03:14 3.5 °C 0.6 °C 1016.9 hPa ESE 17.7 km/h 29.0 km/h 81% 0.0 mm 0.00 W/m2
03:19 3.6 °C 0.4 °C 1016.8 hPa ESE 11.3 km/h 32.2 km/h 80% 0.0 mm 0.00 W/m2
03:24 3.6 °C 0.4 °C 1016.7 hPa ESE 22.5 km/h 30.6 km/h 80% 0.0 mm 0.00 W/m2
03:29 3.5 °C 0.2 °C 1016.7 hPa ESE 19.3 km/h 33.8 km/h 79% 0.0 mm 0.00 W/m2
03:34 3.4 °C -0.0 °C 1016.6 hPa ESE 20.9 km/h 29.0 km/h 78% 0.0 mm 0.00 W/m2
03:39 3.4 °C -0.1 °C 1016.5 hPa East 17.7 km/h 27.4 km/h 78% 0.0 mm 0.00 W/m2
03:44 3.4 °C -0.3 °C 1016.5 hPa ESE 14.5 km/h 29.0 km/h 77% 0.0 mm 0.00 W/m2
03:49 3.3 °C -0.1 °C 1016.5 hPa ESE 19.3 km/h 22.5 km/h 78% 0.0 mm 0.00 W/m2
03:54 3.3 °C -0.1 °C 1016.5 hPa ESE 20.9 km/h 33.8 km/h 78% 0.0 mm 0.00 W/m2
03:59 3.3 °C -0.1 °C 1016.5 hPa ESE 22.5 km/h 30.6 km/h 78% 0.0 mm 0.00 W/m2
04:04 3.4 °C 0.1 °C 1016.5 hPa ESE 22.5 km/h 32.2 km/h 79% 0.0 mm 0.00 W/m2
04:09 3.3 °C 0.2 °C 1016.4 hPa SE 19.3 km/h 30.6 km/h 80% 0.0 mm 0.00 W/m2
04:14 3.3 °C 0.2 °C 1016.3 hPa ESE 9.7 km/h 25.7 km/h 80% 0.0 mm 0.00 W/m2
04:19 3.2 °C 0.1 °C 1016.3 hPa East 12.9 km/h 22.5 km/h 80% 0.0 mm 0.00 W/m2
04:24 3.2 °C 0.2 °C 1016.2 hPa SE 16.1 km/h 29.0 km/h 81% 0.0 mm 0.00 W/m2
04:29 3.1 °C 0.3 °C 1016.3 hPa ESE 14.5 km/h 22.5 km/h 82% 0.0 mm 0.00 W/m2
04:34 3.1 °C 0.3 °C 1016.3 hPa East 17.7 km/h 24.1 km/h 82% 0.0 mm 0.00 W/m2
04:39 3.1 °C 0.3 °C 1016.3 hPa ESE 17.7 km/h 27.4 km/h 82% 0.0 mm 0.00 W/m2
04:44 3.0 °C 0.2 °C 1016.4 hPa East 14.5 km/h 22.5 km/h 82% 0.0 mm 0.00 W/m2
04:49 3.0 °C 0.2 °C 1016.3 hPa ESE 12.9 km/h 24.1 km/h 82% 0.0 mm 0.00 W/m2
04:54 2.9 °C 0.2 °C 1016.3 hPa ESE 17.7 km/h 20.9 km/h 82% 0.0 mm 0.00 W/m2
04:59 2.9 °C 0.3 °C 1016.3 hPa SSE 14.5 km/h 24.1 km/h 83% 0.0 mm 0.00 W/m2
05:04 2.9 °C 0.3 °C 1016.3 hPa ESE 22.5 km/h 25.7 km/h 83% 0.0 mm 0.00 W/m2
05:09 2.9 °C 0.3 °C 1016.2 hPa ESE 12.9 km/h 22.5 km/h 83% 0.0 mm 0.00 W/m2
05:14 2.8 °C 0.2 °C 1016.2 hPa SE 12.9 km/h 27.4 km/h 83% 0.0 mm 0.00 W/m2
05:19 2.8 °C 0.2 °C 1016.2 hPa ESE 20.9 km/h 24.1 km/h 83% 0.0 mm 0.00 W/m2
05:24 2.8 °C 0.2 °C 1016.1 hPa ESE 11.3 km/h 24.1 km/h 83% 0.0 mm 0.00 W/m2
05:29 2.9 °C 0.3 °C 1016.2 hPa ESE 14.5 km/h 25.7 km/h 83% 0.0 mm 0.00 W/m2
05:34 2.9 °C 0.3 °C 1016.1 hPa ESE 22.5 km/h 25.7 km/h 83% 0.0 mm 0.00 W/m2
05:39 2.9 °C 0.2 °C 1016.2 hPa ESE 25.7 km/h 25.7 km/h 82% 0.0 mm 0.00 W/m2
05:44 3.1 °C 0.3 °C 1016.1 hPa East 14.5 km/h 22.5 km/h 82% 0.0 mm 0.00 W/m2
05:49 3.1 °C 0.3 °C 1016.1 hPa ESE 14.5 km/h 25.7 km/h 82% 0.0 mm 0.00 W/m2
05:54 3.1 °C 0.2 °C 1016.2 hPa SE 8.0 km/h 24.1 km/h 81% 0.0 mm 0.00 W/m2
05:59 3.2 °C 0.2 °C 1016.2 hPa ESE 14.5 km/h 22.5 km/h 81% 0.0 mm 0.00 W/m2
06:04 3.2 °C 0.2 °C 1016.3 hPa ESE 14.5 km/h 22.5 km/h 81% 0.0 mm 0.00 W/m2
06:09 3.2 °C 0.3 °C 1016.2 hPa ESE 17.7 km/h 19.3 km/h 81% 0.0 mm 0.00 W/m2
06:14 3.2 °C 0.1 °C 1016.2 hPa East 17.7 km/h 22.5 km/h 80% 0.0 mm 0.00 W/m2
06:19 3.2 °C 0.3 °C 1016.3 hPa ESE 14.5 km/h 19.3 km/h 81% 0.0 mm 0.00 W/m2
06:24 3.2 °C 0.1 °C 1016.3 hPa ESE 12.9 km/h 24.1 km/h 80% 0.0 mm 0.00 W/m2
06:29 3.2 °C 0.1 °C 1016.3 hPa SE 11.3 km/h 22.5 km/h 80% 0.0 mm 0.00 W/m2
06:34 3.2 °C 0.3 °C 1016.5 hPa ESE 17.7 km/h 24.1 km/h 81% 0.0 mm 0.00 W/m2
Compliments of Weather Underground - 2.75 mb